When you browse on this site, cookies collect data to enhance your experience and personalize the content and advertising you see.
Visit our Privacy Policy to learn more. By continuing to use the site, you agree to this use of cookies and data.
  • In Latvia
  • List of Countries
  • For 7 days
  • Water Temperature
  • Satellite Maps
  • Weather Map
  • Weather Widgets
  • user-avatar
    Login

    Hourly Weather Leuseni

    Today, 24 March, Sunday

    Time Temperature Precipitation Wind Pressure Humidity
    00:00 +6°C° 0 mm 2 mps 766 mmHg 55%
    01:00 +6°C° 0 mm 1 mps 766 mmHg 56%
    02:00 +6°C° 0 mm 1 mps 766 mmHg 58%
    03:00 +6°C° 0 mm 1 mps 765 mmHg 59%
    04:00 +5°C° 0 mm 1 mps 765 mmHg 59%
    05:00 +5°C° 0 mm 1 mps 765 mmHg 60%
    06:00 +6°C° 0 mm 1 mps 765 mmHg 56%
    07:00 +7°C° 0 mm 1 mps 765 mmHg 53%
    08:00 +8°C° 0 mm 1 mps 764 mmHg 49%
    09:00 +9°C° 0 mm 1 mps 764 mmHg 43%
    10:00 +10°C° 0 mm 2 mps 764 mmHg 37%
    11:00 +13°C° 0 mm 2 mps 763 mmHg 30%
    12:00 +14°C° 0 mm 2 mps 763 mmHg 28%
    13:00 +14°C° 0 mm 3 mps 762 mmHg 25%
    14:00 +17°C° 0 mm 3 mps 762 mmHg 23%
    15:00 +17°C° 0 mm 3 mps 761 mmHg 24%
    16:00 +17°C° 0 mm 3 mps 761 mmHg 25%
    17:00 +17°C° 0 mm 3 mps 761 mmHg 26%
    18:00 +16°C° 0 mm 3 mps 761 mmHg 35%
    19:00 +14°C° 0 mm 3 mps 761 mmHg 44%
    20:00 +13°C° 0 mm 3 mps 761 mmHg 53%
    21:00 +13°C° 0 mm 2 mps 761 mmHg 60%
    22:00 +13°C° 0 mm 2 mps 761 mmHg 68%
    23:00 +12°C° 0 mm 1 mps 761 mmHg 75%

    Tomorrow, 25 March, Monday

    Time Temperature Precipitation Wind Pressure Humidity
    00:00 +11°C° 0 mm 1 mps 761 mmHg 77%
    01:00 +11°C° 0 mm 1 mps 760 mmHg 79%
    02:00 +10°C° 0 mm 1 mps 760 mmHg 81%
    03:00 +9°C° 0 mm 0 mps 759 mmHg 82%
    04:00 +9°C° 0 mm 0 mps 759 mmHg 84%
    05:00 +8°C° 0 mm 0 mps 758 mmHg 85%
    06:00 +10°C° 0 mm 1 mps 758 mmHg 81%
    07:00 +10°C° 0 mm 2 mps 757 mmHg 77%
    08:00 +11°C° 0 mm 3 mps 757 mmHg 73%
    09:00 +12°C° 0 mm 4 mps 756 mmHg 66%
    10:00 +14°C° 0 mm 5 mps 756 mmHg 59%
    11:00 +16°C° 0 mm 5 mps 755 mmHg 52%
    12:00 +18°C° 0 mm 4 mps 755 mmHg 49%
    13:00 +18°C° 0 mm 3 mps 754 mmHg 46%
    14:00 +19°C° 0 mm 2 mps 753 mmHg 43%
    15:00 +18°C° 0 mm 2 mps 753 mmHg 45%
    16:00 +18°C° 0 mm 3 mps 753 mmHg 47%
    17:00 +18°C° 0 mm 4 mps 753 mmHg 49%
    18:00 +15°C° 0 mm 4 mps 753 mmHg 56%
    19:00 +14°C° 0 mm 4 mps 754 mmHg 63%
    20:00 +12°C° 0 mm 4 mps 754 mmHg 70%
    21:00 +11°C° 0 mm 3 mps 755 mmHg 72%
    22:00 +10°C° 0 mm 3 mps 755 mmHg 75%
    23:00 +10°C° 0 mm 3 mps 755 mmHg 77%

    Day after tomorrow, 26 March, Tuesday

    Time Temperature Precipitation Wind Pressure Humidity
    00:00 +9°C° 0.4 mm 3 mps 756 mmHg 78%
    01:00 +9°C° 0.4 mm 3 mps 756 mmHg 80%
    02:00 +8°C° 0.4 mm 3 mps 756 mmHg 81%
    03:00 +8°C° 0.7 mm 3 mps 756 mmHg 81%
    04:00 +8°C° 0.7 mm 3 mps 757 mmHg 82%
    05:00 +8°C° 0.7 mm 3 mps 757 mmHg 82%
    06:00 +8°C° 0.1 mm 3 mps 757 mmHg 78%
    07:00 +7°C° 0.1 mm 4 mps 758 mmHg 73%
    08:00 +7°C° 0.1 mm 5 mps 759 mmHg 68%
    09:00 +8°C° 0 mm 5 mps 759 mmHg 66%
    10:00 +9°C° 0 mm 6 mps 760 mmHg 64%
    11:00 +10°C° 0 mm 6 mps 760 mmHg 62%
    12:00 +10°C° 0 mm 6 mps 760 mmHg 58%
    13:00 +10°C° 0 mm 6 mps 760 mmHg 53%
    14:00 +10°C° 0 mm 6 mps 761 mmHg 49%
    15:00 +10°C° 0 mm 6 mps 761 mmHg 47%
    16:00 +10°C° 0 mm 6 mps 761 mmHg 45%
    17:00 +10°C° 0 mm 6 mps 761 mmHg 44%
    18:00 +9°C° 0 mm 5 mps 762 mmHg 47%
    19:00 +8°C° 0 mm 5 mps 762 mmHg 50%
    20:00 +7°C° 0 mm 4 mps 763 mmHg 53%
    21:00 +7°C° 0 mm 4 mps 763 mmHg 55%
    22:00 +6°C° 0 mm 4 mps 764 mmHg 57%
    23:00 +5°C° 0 mm 4 mps 764 mmHg 59%

    27 March, Wednesday

    Time Temperature Precipitation Wind Pressure Humidity
    00:00 +5°C° 0 mm 4 mps 764 mmHg 62%
    01:00 +4°C° 0 mm 3 mps 765 mmHg 64%
    02:00 +4°C° 0 mm 3 mps 765 mmHg 66%
    03:00 +3°C° 0 mm 3 mps 765 mmHg 68%
    04:00 +3°C° 0 mm 3 mps 765 mmHg 70%
    05:00 +2°C° 0 mm 3 mps 765 mmHg 72%
    06:00 +3°C° 0 mm 4 mps 766 mmHg 67%
    07:00 +4°C° 0 mm 4 mps 766 mmHg 62%
    08:00 +5°C° 0 mm 5 mps 766 mmHg 57%
    09:00 +6°C° 0 mm 5 mps 767 mmHg 54%
    10:00 +7°C° 0 mm 5 mps 767 mmHg 51%
    11:00 +8°C° 0 mm 5 mps 767 mmHg 48%
    12:00 +8°C° 0 mm 5 mps 767 mmHg 46%
    13:00 +9°C° 0 mm 5 mps 767 mmHg 44%
    14:00 +9°C° 0 mm 5 mps 767 mmHg 42%
    15:00 +9°C° 0 mm 5 mps 767 mmHg 40%
    16:00 +8°C° 0 mm 5 mps 767 mmHg 38%
    17:00 +8°C° 0 mm 5 mps 768 mmHg 36%
    18:00 +7°C° 0 mm 4 mps 768 mmHg 37%
    19:00 +7°C° 0 mm 3 mps 769 mmHg 38%
    20:00 +6°C° 0 mm 2 mps 769 mmHg 40%
    21:00 +5°C° 0 mm 2 mps 769 mmHg 40%
    22:00 +6°C° 0 mm 1 mps 770 mmHg 39%
    23:00 +5°C° 0 mm 1 mps 770 mmHg 39%

    28 March, Thursday

    Time Temperature Precipitation Wind Pressure Humidity
    00:00 +5°C° 0 mm 1 mps 770 mmHg 39%
    01:00 +4°C° 0 mm 0 mps 770 mmHg 39%
    02:00 +3°C° 0 mm 0 mps 771 mmHg 39%
    03:00 +3°C° 0 mm 0 mps 771 mmHg 40%
    04:00 +3°C° 0 mm 0 mps 771 mmHg 40%
    05:00 +2°C° 0 mm 0 mps 771 mmHg 41%
    06:00 +3°C° 0 mm 0 mps 771 mmHg 39%
    07:00 +4°C° 0 mm 0 mps 771 mmHg 37%
    08:00 +5°C° 0 mm 0 mps 771 mmHg 35%
    09:00 +7°C° 0 mm 0 mps 771 mmHg 32%
    10:00 +8°C° 0 mm 0 mps 771 mmHg 29%
    11:00 +9°C° 0 mm 0 mps 771 mmHg 26%
    12:00 +10°C° 0 mm 0 mps 771 mmHg 25%
    13:00 +11°C° 0 mm 0 mps 771 mmHg 24%
    14:00 +11°C° 0 mm 0 mps 770 mmHg 23%
    15:00 +11°C° 0 mm 0 mps 770 mmHg 24%
    16:00 +12°C° 0 mm 1 mps 770 mmHg 24%
    17:00 +12°C° 0 mm 1 mps 769 mmHg 24%
    18:00 +11°C° 0 mm 1 mps 770 mmHg 28%
    19:00 +10°C° 0 mm 1 mps 770 mmHg 31%
    20:00 +9°C° 0 mm 1 mps 770 mmHg 34%
    21:00 +8°C° 0 mm 0 mps 770 mmHg 35%
    22:00 +7°C° 0 mm 0 mps 770 mmHg 37%
    23:00 +7°C° 0 mm 0 mps 771 mmHg 38%

    29 March, Friday

    Time Temperature Precipitation Wind Pressure Humidity
    00:00 +6°C° 0 mm 0 mps 771 mmHg 39%
    01:00 +6°C° 0 mm 0 mps 770 mmHg 41%
    02:00 +5°C° 0 mm 0 mps 770 mmHg 42%
    03:00 +5°C° 0 mm 0 mps 770 mmHg 43%
    04:00 +6°C° 0 mm 1 mps 770 mmHg 44%
    05:00 +6°C° 0 mm 1 mps 770 mmHg 44%
    06:00 +7°C° 0 mm 1 mps 770 mmHg 42%
    07:00 +8°C° 0 mm 1 mps 770 mmHg 40%
    08:00 +9°C° 0 mm 1 mps 771 mmHg 38%
    09:00 +9°C° 0 mm 2 mps 770 mmHg 37%
    10:00 +11°C° 0 mm 3 mps 770 mmHg 36%
    11:00 +12°C° 0 mm 3 mps 770 mmHg 35%
    12:00 +13°C° 0 mm 3 mps 769 mmHg 35%
    13:00 +14°C° 0 mm 4 mps 769 mmHg 35%
    14:00 +15°C° 0 mm 4 mps 768 mmHg 35%
    15:00 +15°C° 0 mm 4 mps 768 mmHg 37%
    16:00 +14°C° 0 mm 4 mps 768 mmHg 39%
    17:00 +14°C° 0 mm 4 mps 768 mmHg 40%
    18:00 +13°C° 0 mm 4 mps 768 mmHg 46%
    19:00 +12°C° 0 mm 3 mps 768 mmHg 52%
    20:00 +10°C° 0 mm 3 mps 768 mmHg 58%
    21:00 +10°C° 0 mm 3 mps 768 mmHg 61%
    22:00 +10°C° 0 mm 3 mps 768 mmHg 63%
    23:00 +9°C° 0 mm 2 mps 768 mmHg 66%
    Show more